320  
ASUS41 KBTV 190330  
RWRBTV  
VERMONT REGIONAL WEATHER ROUNDUP  
NATIONAL WEATHER SERVICE BURLINGTON VT  
1100 PM EDT WED JUL 18 2018  
 
NOTE: "FAIR" INDICATES FEW OR NO CLOUDS BELOW 12,000 FEET WITH NO  
SIGNIFICANT WEATHER AND/OR S TO VISIBILITY
.  
 
* THESE REPORTS ARE NOT UNDER NWS QUALITY CONTROL AND/OR DO NOT  
REPORT WEATHER SUCH AS PRECIPITATION AND FOG.
 
 
VTZ001>019-190400-  
_____VERMONT_____  
 
 
CITY SKY/WX TMP DP RH WIND PRES REMARKS
 
BURLINGTON FAIR 60 47 61 E3 30.01S  
MONTPELIER FAIR 51 45 79 CALM 30.07R  
MORRISVILLE FAIR 49 47 93 CALM 30.04R  
ST. JOHNSBURY* N/A 54 49 83 MISG 30.01R  
LYNDONVILLE* FAIR 53 45 74 CALM 30.05R  
MIDDLEBURY* FAIR 59 45 60 CALM 30.02R  
RUTLAND* FAIR 57 49 74 SE3 30.04R  
SPRINGFIELD FAIR 56 51 84 CALM 30.03R  
HIGHGATE* FAIR 53 51 92 CALM 30.01R  
NEWPORT* FAIR 51 47 88 CALM 30.02S  
BENNINGTON FAIR 56 53 90 SE3 30.02R  
ISLAND POND* N/A 46 N/A N/A CALM N/A  
GALLUP MILLS* N/A 46 N/A N/A MISG N/A  
UNION VILLAGE* N/A 54 N/A N/A MISG N/A  
MT. MANSFIELD* N/A 50 N/A N/A W22 N/A  
 
_____LAKE CHAMPLAIN_____  
 
 
CITY SKY/WX TMP DP RH WIND PRES REMARKS
 
BURTON ISLAND* N/A 70 52 52 NW5 N/A  
COLCHESTER RF* N/A 66 50 55 W14 N/A  
DIAMOND ISL* N/A 70 45 40 W10 N/A  
 

 
 
NYZ007-026>031-035-052-083-087-190400-  
_____NORTHERN NEW YORK_____  
 
 
CITY SKY/WX TMP DP RH WIND PRES REMARKS
 
PLATTSBURGH FAIR 61 45 55 W6 30.01R  
SARANAC LAKE FAIR 45 44 97 CALM 30.05S  
MASSENA FAIR 56 53 90 CALM 30.04R  
OGDENSBURG* FAIR 55 53 94 CALM 30.04R  
POTSDAM* PTCLDY 55 52 88 CALM 30.04R  
STARK FALLS* N/A 54 N/A N/A CALM N/A  
WATERTOWN FAIR 59 53 80 S7 30.04R  
FT DRUM FAIR 59 55 87 SW5 30.04S  
ALBANY FAIR 68 48 48 N6 30.01R  
GLENS FALLS FAIR 56 49 77 CALM 30.01R  
 

 
NHZ002-005-011-190400-  
_____NEW HAMPSHIRE_____  
 
 
CITY SKY/WX TMP DP RH WIND PRES REMARKS
 
LEBANON FAIR 55 48 77 CALM 30.01R  
KEENE FAIR 54 50 86 S3 30.02R  
MT WASHINGTON PTCLDY 39 32 75 N28 N/A WCI 28  
PLYMOUTH N/A 53 49 85 NW3 30.01R  
WHITEFIELD FAIR 50 47 89 CALM 30.03R  
 

 
 
_____REGIONAL QUEBEC LOCATIONS_____  
 
 
CITY SKY/WX TMP DP RH WIND PRES REMARKS
 
MONTREAL CLEAR 66 46 48 NW6 30.00S  
QUEBEC CITY CLEAR 54 52 94 VRB2 29.96S  
SHERBROOKE CLEAR 52 50 93 VRB2 30.00R  
 
_____REGIONAL ONTARIO LOCATIONS_____  
 
 
CITY SKY/WX TMP DP RH WIND PRES REMARKS
 
OTTAWA PTCLDY 59 46 63 E5 30.03S  
 
______KEY______  
VSB - VISIBILITY IN MILES  
WCI - WIND CHILL INDEX  
HX - HEAT INDEX  

 
NNNN  
 
 
CLICK HERE TO GO TO PREVIOUS BULLETINS.

The Nexlab VT Page
The Nexlab NY Page Main Text Page